Time,TemperatureF,DewpointF,PressureIn,WindDirection,WindDirectionDegrees,WindSpeedMPH,WindSpeedGustMPH,Humidity,HourlyPrecipIn,Conditions,Clouds,dailyrainin,SolarRadiationWatts/m^2,SoftwareType,DateUTC
2013-01-15 00:02:00,49.0,48.0,-100.00,ESE,111,0.0,6.0,97,0.00,,,0.00,0.000000,,2013-01-15 10:02:00,
2013-01-15 00:11:00,49.0,48.0,-100.00,ESE,111,0.0,6.0,97,0.00,,,0.00,0.000000,,2013-01-15 10:11:00,
2013-01-15 00:22:00,49.0,48.0,-100.00,ESE,111,0.0,6.0,97,0.00,,,0.00,0.000000,,2013-01-15 10:22:00,
2013-01-15 00:32:00,49.0,48.0,-100.00,ESE,111,0.0,6.0,97,0.00,,,0.00,0.000000,,2013-01-15 10:32:00,
2013-01-15 00:52:00,49.0,48.0,-100.00,ENE,57,1.0,6.0,98,0.00,,,0.00,0.000000,,2013-01-15 10:52:00,
2013-01-15 01:02:00,49.0,48.0,-100.00,ENE,57,1.0,6.0,98,0.00,,,0.00,0.000000,,2013-01-15 11:02:00,
2013-01-15 01:12:00,49.0,48.0,-100.00,ENE,57,1.0,6.0,98,0.00,,,0.00,0.000000,,2013-01-15 11:12:00,
2013-01-15 01:22:00,49.0,48.0,-100.00,ENE,57,1.0,6.0,98,0.00,,,0.00,0.000000,,2013-01-15 11:22:00,
2013-01-15 01:32:00,49.0,48.0,-100.00,ENE,57,1.0,6.0,98,0.00,,,0.00,0.000000,,2013-01-15 11:32:00,
2013-01-15 01:53:00,49.0,48.0,-100.00,East,95,0.0,5.0,98,0.00,,,0.00,0.000000,,2013-01-15 11:53:00,
2013-01-15 02:02:00,49.0,48.0,-100.00,East,95,0.0,5.0,98,0.00,,,0.00,0.000000,,2013-01-15 12:02:00,
2013-01-15 02:12:00,49.0,48.0,-100.00,East,95,0.0,5.0,98,0.00,,,0.00,0.000000,,2013-01-15 12:12:00,
2013-01-15 02:22:00,49.0,48.0,-100.00,East,95,0.0,5.0,98,0.00,,,0.00,0.000000,,2013-01-15 12:22:00,
2013-01-15 02:32:00,49.0,48.0,-100.00,East,95,0.0,5.0,98,0.00,,,0.00,0.000000,,2013-01-15 12:32:00,
2013-01-15 02:53:00,54.0,50.0,-100.00,East,89,5.0,5.0,87,0.00,,,0.00,0.000000,,2013-01-15 12:53:00,
2013-01-15 03:03:00,54.0,50.0,-100.00,East,89,5.0,5.0,87,0.00,,,0.00,0.000000,,2013-01-15 13:03:00,
2013-01-15 03:12:00,54.0,50.0,-100.00,East,89,5.0,5.0,87,0.00,,,0.00,0.000000,,2013-01-15 13:12:00,
2013-01-15 03:23:00,54.0,50.0,-100.00,East,89,5.0,5.0,87,0.00,,,0.00,0.000000,,2013-01-15 13:23:00,
2013-01-15 03:32:00,54.0,50.0,-100.00,East,89,5.0,5.0,87,0.00,,,0.00,0.000000,,2013-01-15 13:32:00,
2013-01-15 03:33:00,55.0,49.0,-100.00,East,98,3.0,7.0,81,0.00,,,0.00,0.000000,,2013-01-15 13:33:00,
2013-01-15 03:53:00,55.0,49.0,-100.00,East,98,3.0,7.0,81,0.00,,,0.00,0.000000,,2013-01-15 13:53:00,
2013-01-15 04:02:00,55.0,49.0,-100.00,East,98,3.0,7.0,81,0.00,,,0.00,0.000000,,2013-01-15 14:02:00,
2013-01-15 04:12:00,55.0,49.0,-100.00,East,98,3.0,7.0,81,0.00,,,0.00,0.000000,,2013-01-15 14:12:00,
2013-01-15 04:23:00,55.0,49.0,-100.00,East,98,3.0,7.0,81,0.00,,,0.00,0.000000,,2013-01-15 14:23:00,
2013-01-15 04:53:00,53.0,42.0,-100.00,East,90,1.0,6.0,66,0.00,,,0.00,0.000000,,2013-01-15 14:53:00,
2013-01-15 05:03:00,53.0,42.0,-100.00,East,90,1.0,6.0,66,0.00,,,0.00,0.000000,,2013-01-15 15:03:00,
2013-01-15 05:12:00,53.0,42.0,-100.00,East,90,1.0,6.0,66,0.00,,,0.00,0.000000,,2013-01-15 15:12:00,
2013-01-15 05:23:00,53.0,42.0,-100.00,East,90,1.0,6.0,66,0.00,,,0.00,0.000000,,2013-01-15 15:23:00,
2013-01-15 05:32:00,53.0,42.0,-100.00,East,90,1.0,6.0,66,0.00,,,0.00,0.000000,,2013-01-15 15:32:00,
2013-01-15 05:53:00,54.0,52.0,-100.00,NE,53,3.0,5.0,92,0.00,,,0.00,0.000000,,2013-01-15 15:53:00,
2013-01-15 06:02:00,54.0,52.0,-100.00,NE,53,3.0,5.0,92,0.00,,,0.00,0.000000,,2013-01-15 16:02:00,
2013-01-15 06:12:00,54.0,52.0,-100.00,NE,53,3.0,5.0,92,0.00,,,0.00,0.000000,,2013-01-15 16:12:00,
2013-01-15 06:22:00,54.0,52.0,-100.00,NE,53,3.0,5.0,92,0.00,,,0.00,0.000000,,2013-01-15 16:22:00,
2013-01-15 06:32:00,54.0,52.0,-100.00,NE,53,3.0,5.0,92,0.00,,,0.00,0.000000,,2013-01-15 16:32:00,
2013-01-15 06:33:00,56.0,49.0,-100.00,ENE,67,6.0,7.0,78,0.00,,,0.00,0.000000,,2013-01-15 16:33:00,
2013-01-15 06:53:00,56.0,49.0,-100.00,ENE,67,6.0,7.0,78,0.00,,,0.00,0.000000,,2013-01-15 16:53:00,
2013-01-15 07:03:00,56.0,49.0,-100.00,ENE,67,6.0,7.0,78,0.00,,,0.00,0.000000,,2013-01-15 17:03:00,
2013-01-15 07:12:00,56.0,49.0,-100.00,ENE,67,6.0,7.0,78,0.00,,,0.00,0.000000,,2013-01-15 17:12:00,
2013-01-15 07:22:00,56.0,49.0,-100.00,ENE,67,6.0,7.0,78,0.00,,,0.00,0.000000,,2013-01-15 17:22:00,
2013-01-15 07:33:00,54.0,50.0,-100.00,West,264,0.0,9.0,87,0.00,,,0.00,3.000000,,2013-01-15 17:33:00,
2013-01-15 07:53:00,54.0,50.0,-100.00,West,264,0.0,9.0,87,0.00,,,0.00,3.000000,,2013-01-15 17:53:00,
2013-01-15 08:03:00,54.0,50.0,-100.00,West,264,0.0,9.0,87,0.00,,,0.00,3.000000,,2013-01-15 18:03:00,
2013-01-15 08:12:00,54.0,50.0,-100.00,West,264,0.0,9.0,87,0.00,,,0.00,3.000000,,2013-01-15 18:12:00,
2013-01-15 08:22:00,54.0,50.0,-100.00,West,264,0.0,9.0,87,0.00,,,0.00,3.000000,,2013-01-15 18:22:00,
2013-01-15 08:33:00,54.0,54.0,-100.00,East,84,6.0,7.0,99,0.01,,,0.01,44.000000,,2013-01-15 18:33:00,
2013-01-15 08:53:00,54.0,54.0,-100.00,East,84,6.0,7.0,99,0.01,,,0.01,44.000000,,2013-01-15 18:53:00,
2013-01-15 09:03:00,54.0,54.0,-100.00,East,84,6.0,7.0,99,0.01,,,0.01,44.000000,,2013-01-15 19:03:00,
2013-01-15 09:12:00,54.0,54.0,-100.00,East,84,6.0,7.0,99,0.01,,,0.01,44.000000,,2013-01-15 19:12:00,
2013-01-15 09:22:00,54.0,54.0,-100.00,East,84,6.0,7.0,99,0.01,,,0.01,44.000000,,2013-01-15 19:22:00,
2013-01-15 09:33:00,56.0,56.0,-100.00,East,94,6.0,11.0,99,0.01,,,-99.99,142.000000,,2013-01-15 19:33:00,
2013-01-15 09:53:00,56.0,56.0,-100.00,East,94,6.0,11.0,99,0.01,,,-99.99,142.000000,,2013-01-15 19:53:00,
2013-01-15 10:03:00,56.0,56.0,-100.00,East,94,6.0,11.0,99,0.01,,,-99.99,142.000000,,2013-01-15 20:03:00,
2013-01-15 10:12:00,56.0,56.0,-100.00,East,94,6.0,11.0,99,0.01,,,-99.99,142.000000,,2013-01-15 20:12:00,
2013-01-15 10:22:00,56.0,56.0,-100.00,East,94,6.0,11.0,99,0.01,,,-99.99,142.000000,,2013-01-15 20:22:00,
2013-01-15 10:33:00,66.0,59.0,-100.00,WNW,292,0.0,11.0,78,0.00,,,0.02,417.000000,,2013-01-15 20:33:00,
2013-01-15 10:53:00,66.0,59.0,-100.00,WNW,292,0.0,11.0,78,0.00,,,0.02,417.000000,,2013-01-15 20:53:00,
2013-01-15 11:03:00,66.0,59.0,-100.00,WNW,292,0.0,11.0,78,0.00,,,0.02,417.000000,,2013-01-15 21:03:00,
2013-01-15 11:12:00,66.0,59.0,-100.00,WNW,292,0.0,11.0,78,0.00,,,0.02,417.000000,,2013-01-15 21:12:00,
2013-01-15 11:22:00,66.0,59.0,-100.00,WNW,292,0.0,11.0,78,0.00,,,0.02,417.000000,,2013-01-15 21:22:00,
2013-01-15 11:53:00,61.0,61.0,-100.00,West,267,4.0,8.0,99,0.00,,,0.02,459.000000,,2013-01-15 21:53:00,
2013-01-15 12:02:00,61.0,61.0,-100.00,West,267,4.0,8.0,99,0.00,,,0.02,459.000000,,2013-01-15 22:02:00,
2013-01-15 12:12:00,61.0,61.0,-100.00,West,267,4.0,8.0,99,0.00,,,0.02,459.000000,,2013-01-15 22:12:00,
2013-01-15 12:22:00,61.0,61.0,-100.00,West,267,4.0,8.0,99,0.00,,,0.02,459.000000,,2013-01-15 22:22:00,
2013-01-15 12:32:00,61.0,61.0,-100.00,West,267,4.0,8.0,99,0.00,,,0.02,459.000000,,2013-01-15 22:32:00,
2013-01-15 12:53:00,59.0,59.0,-100.00,West,273,3.0,11.0,99,0.00,,,0.02,320.000000,,2013-01-15 22:53:00,
2013-01-15 13:02:00,59.0,59.0,-100.00,West,273,3.0,11.0,99,0.00,,,0.02,320.000000,,2013-01-15 23:02:00,
2013-01-15 13:12:00,59.0,59.0,-100.00,West,273,3.0,11.0,99,0.00,,,0.02,320.000000,,2013-01-15 23:12:00,
2013-01-15 13:22:00,59.0,59.0,-100.00,West,273,3.0,11.0,99,0.00,,,0.02,320.000000,,2013-01-15 23:22:00,
2013-01-15 13:32:00,59.0,59.0,-100.00,West,273,3.0,11.0,99,0.00,,,0.02,320.000000,,2013-01-15 23:32:00,
2013-01-15 13:53:00,62.0,62.0,-100.00,WSW,249,7.0,11.0,99,0.00,,,-99.99,401.000000,,2013-01-15 23:53:00,
2013-01-15 14:02:00,62.0,62.0,-100.00,WSW,249,7.0,11.0,99,0.00,,,-99.99,401.000000,,2013-01-16 00:02:00,
2013-01-15 14:12:00,62.0,62.0,-100.00,WSW,249,7.0,11.0,99,0.00,,,-99.99,401.000000,,2013-01-16 00:12:00,
2013-01-15 14:22:00,62.0,62.0,-100.00,WSW,249,7.0,11.0,99,0.00,,,-99.99,401.000000,,2013-01-16 00:22:00,
2013-01-15 14:32:00,62.0,62.0,-100.00,WSW,249,7.0,11.0,99,0.00,,,-99.99,401.000000,,2013-01-16 00:32:00,
2013-01-15 14:53:00,66.0,64.0,-100.00,WSW,257,7.0,10.0,93,0.00,,,0.02,478.000000,,2013-01-16 00:53:00,
2013-01-15 15:02:00,66.0,64.0,-100.00,WSW,257,7.0,10.0,93,0.00,,,0.02,478.000000,,2013-01-16 01:02:00,
2013-01-15 15:12:00,66.0,64.0,-100.00,WSW,257,7.0,10.0,93,0.00,,,0.02,478.000000,,2013-01-16 01:12:00,
2013-01-15 15:22:00,66.0,64.0,-100.00,WSW,257,7.0,10.0,93,0.00,,,0.02,478.000000,,2013-01-16 01:22:00,
2013-01-15 15:32:00,66.0,64.0,-100.00,WSW,257,7.0,10.0,93,0.00,,,0.02,478.000000,,2013-01-16 01:32:00,
2013-01-15 15:53:00,65.0,60.0,-100.00,WSW,244,5.0,11.0,84,0.00,,,0.02,643.000000,,2013-01-16 01:53:00,
2013-01-15 16:02:00,65.0,60.0,-100.00,WSW,244,5.0,11.0,84,0.00,,,0.02,643.000000,,2013-01-16 02:02:00,
2013-01-15 16:12:00,65.0,60.0,-100.00,WSW,244,5.0,11.0,84,0.00,,,0.02,643.000000,,2013-01-16 02:12:00,
2013-01-15 16:22:00,65.0,60.0,-100.00,WSW,244,5.0,11.0,84,0.00,,,0.02,643.000000,,2013-01-16 02:22:00,
2013-01-15 16:32:00,65.0,60.0,-100.00,WSW,244,5.0,11.0,84,0.00,,,0.02,643.000000,,2013-01-16 02:32:00,
2013-01-15 16:53:00,61.0,60.0,-100.00,West,273,4.0,10.0,96,0.00,,,0.02,360.000000,,2013-01-16 02:53:00,
2013-01-15 17:02:00,61.0,60.0,-100.00,West,273,4.0,10.0,96,0.00,,,0.02,360.000000,,2013-01-16 03:02:00,
2013-01-15 17:11:00,61.0,60.0,-100.00,West,273,4.0,10.0,96,0.00,,,0.02,360.000000,,2013-01-16 03:11:00,
2013-01-15 17:22:00,61.0,60.0,-100.00,West,273,4.0,10.0,96,0.00,,,0.02,360.000000,,2013-01-16 03:22:00,
2013-01-15 17:32:00,61.0,60.0,-100.00,West,273,4.0,10.0,96,0.00,,,0.02,360.000000,,2013-01-16 03:32:00,
2013-01-15 17:53:00,60.0,59.0,-100.00,SW,217,3.0,8.0,98,0.00,,,0.02,222.000000,,2013-01-16 03:53:00,
2013-01-15 18:02:00,60.0,59.0,-100.00,SW,217,3.0,8.0,98,0.00,,,0.02,222.000000,,2013-01-16 04:02:00,
2013-01-15 18:12:00,60.0,59.0,-100.00,SW,217,3.0,8.0,98,0.00,,,0.02,222.000000,,2013-01-16 04:12:00,
2013-01-15 18:22:00,60.0,59.0,-100.00,SW,217,3.0,8.0,98,0.00,,,0.02,222.000000,,2013-01-16 04:22:00,
2013-01-15 18:32:00,60.0,59.0,-100.00,SW,217,3.0,8.0,98,0.00,,,0.02,222.000000,,2013-01-16 04:32:00,
2013-01-15 18:52:00,56.0,56.0,-100.00,SW,234,1.0,8.0,99,0.00,,,0.02,20.000000,,2013-01-16 04:52:00,
2013-01-15 19:03:00,56.0,56.0,-100.00,SW,234,1.0,8.0,99,0.00,,,0.02,20.000000,,2013-01-16 05:03:00,
2013-01-15 19:12:00,56.0,56.0,-100.00,SW,234,1.0,8.0,99,0.00,,,0.02,20.000000,,2013-01-16 05:12:00,
2013-01-15 19:22:00,56.0,56.0,-100.00,SW,234,1.0,8.0,99,0.00,,,0.02,20.000000,,2013-01-16 05:22:00,
2013-01-15 19:32:00,56.0,56.0,-100.00,SW,234,1.0,8.0,99,0.00,,,0.02,20.000000,,2013-01-16 05:32:00,
2013-01-15 19:53:00,54.0,54.0,-100.00,NE,40,2.0,4.0,99,0.00,,,0.02,0.000000,,2013-01-16 05:53:00,
2013-01-15 20:02:00,54.0,54.0,-100.00,NE,40,2.0,4.0,99,0.00,,,0.02,0.000000,,2013-01-16 06:02:00,
2013-01-15 20:12:00,54.0,54.0,-100.00,NE,40,2.0,4.0,99,0.00,,,0.02,0.000000,,2013-01-16 06:12:00,
2013-01-15 20:22:00,54.0,54.0,-100.00,NE,40,2.0,4.0,99,0.00,,,0.02,0.000000,,2013-01-16 06:22:00,
2013-01-15 20:32:00,54.0,54.0,-100.00,NE,40,2.0,4.0,99,0.00,,,0.02,0.000000,,2013-01-16 06:32:00,
2013-01-15 20:53:00,51.0,51.0,-100.00,NNE,27,0.0,5.0,99,0.00,,,0.02,0.000000,,2013-01-16 06:53:00,
2013-01-15 21:02:00,51.0,51.0,-100.00,NNE,27,0.0,5.0,99,0.00,,,0.02,0.000000,,2013-01-16 07:02:00,
2013-01-15 21:11:00,51.0,51.0,-100.00,NNE,27,0.0,5.0,99,0.00,,,0.02,0.000000,,2013-01-16 07:11:00,
2013-01-15 21:22:00,51.0,51.0,-100.00,NNE,27,0.0,5.0,99,0.00,,,0.02,0.000000,,2013-01-16 07:22:00,
2013-01-15 21:32:00,51.0,51.0,-100.00,NNE,27,0.0,5.0,99,0.00,,,0.02,0.000000,,2013-01-16 07:32:00,
2013-01-15 21:52:00,51.0,51.0,-100.00,NNE,26,1.0,3.0,100,0.00,,,0.02,0.000000,,2013-01-16 07:52:00,
2013-01-15 22:02:00,51.0,51.0,-100.00,NNE,26,1.0,3.0,100,0.00,,,0.02,0.000000,,2013-01-16 08:02:00,
2013-01-15 22:12:00,51.0,51.0,-100.00,NNE,26,1.0,3.0,100,0.00,,,0.02,0.000000,,2013-01-16 08:12:00,
2013-01-15 22:22:00,51.0,51.0,-100.00,NNE,26,1.0,3.0,100,0.00,,,0.02,0.000000,,2013-01-16 08:22:00,
2013-01-15 22:32:00,51.0,51.0,-100.00,NNE,26,1.0,3.0,100,0.00,,,0.02,0.000000,,2013-01-16 08:32:00,
2013-01-15 22:52:00,50.0,50.0,-100.00,NNE,26,1.0,6.0,99,0.00,,,0.02,0.000000,,2013-01-16 08:52:00,
2013-01-15 23:02:00,50.0,50.0,-100.00,NNE,26,1.0,6.0,99,0.00,,,0.02,0.000000,,2013-01-16 09:02:00,
2013-01-15 23:11:00,50.0,50.0,-100.00,NNE,26,1.0,6.0,99,0.00,,,0.02,0.000000,,2013-01-16 09:11:00,
2013-01-15 23:22:00,50.0,50.0,-100.00,NNE,26,1.0,6.0,99,0.00,,,0.02,0.000000,,2013-01-16 09:22:00,
2013-01-15 23:32:00,50.0,50.0,-100.00,NNE,26,1.0,6.0,99,0.00,,,0.02,0.000000,,2013-01-16 09:32:00,
2013-01-15 23:53:00,49.0,49.0,-100.00,NE,42,4.0,7.0,99,0.00,,,0.02,0.000000,,2013-01-16 09:53:00,